Погода в Шайтанке

Россия / Свердловская область     59°26′51″N   60°00′46″E
темп.,
°C
ветер,
м/с
пор.,
м/с
влажн.,
%
обл.,
%
осадки,
мм/ч
давл.,
гПа
погр.,
м
25 июня, сб
сб2523:00+12з247489 0.0 100573
02:00+10з23865 0.0 100555
05:00+10з259433 0.0 1004107
08:00+15з3872100 0.0 1002660
11:00+17зсз5857100 0.0 10011610
14:00+20сз694586 0.1 10002380
17:00+17ссз5852100 0.1 10011762
20:00+14ссз6126197 0.0 10021531
26 июня, вс
вс2623:00+8сз7127697 0.0 10031082
02:00+7сз61482100 0.0 10031208
05:00+7сз61179100 0.0 1002946
08:00+7сз61176100 0.0 1002667
11:00+7сз41082100 0.1 1004524
14:00+6сз41296100 1.6 1006537
17:00+6зсз51292100 2.2 1007522
20:00+6сз41189100 0.0 1008515
27 июня, пн
пн2723:00+6сз41088100 0.0 1009403
02:00+6сз4984100 0.0 1009372
05:00+6зсз3884100 0.0 1009365
08:00+10зсз366057 0.0 1008755
11:00+15сз5746100 0.0 10071515
14:00+9сз2694100 1.1 1007448
17:00+9сз3689100 1.2 1007704
20:00+10ссз3777100 0.1 1007674
28 июня, вт
вт2823:00+7сз4770100 0.1 1008712
02:00+6ссз377194 0.0 1008422
05:00+4сз377378 0.0 1008347
08:00+7сз346631 0.0 1008669
11:00+10ссз4557100 0.0 10071379
14:00+9ссз4565100 0.1 10081215
17:00+8ссз3675100 0.3 1009822
20:00+6с5893100 0.4 10101088
29 июня, ср
ср2923:00+5ссз41198100 1.3 10111083
02:00+6ссз51297100 1.1 10101129
05:00+7с5149250 1.6 1010905
08:00+11с6126753 0.0 10101206
11:00+15с694686 0.0 10101684
14:00+17ссз583799 0.0 10101929
17:00+18ссз5836100 0.0 10082200
20:00+15сз61044100 0.0 10091046